,,,PA_Meas_PMT16A,,PR_Meas_QMR101_102,,RH_Meas_QMH101,,SR_Meas_QMS101,,TA_Meas_QMH101,,GenWind,,GenWind,
date,time,status,PA,status,PR,status,RH,status,SR,status,TA,status,DirAvg,status,SpdAvg,
2010-12-11, 00:00:04,VALID,998.292,VALID,0,VALID,89.5489,VALID,0,VALID,23.4475,VALID,134,VALID,0.685547,
2010-12-11, 00:01:04,VALID,998.247,VALID,0,VALID,89.5107,VALID,0,VALID,23.4475,VALID,134,VALID,0.258984,
2010-12-11, 00:02:04,VALID,998.264,VALID,0,VALID,89.526,VALID,0,VALID,23.4884,VALID,134,VALID,0.370313,
2010-12-11, 00:03:04,VALID,998.219,VALID,0,VALID,89.5183,VALID,0,VALID,23.4671,VALID,134,VALID,0.299219,
2010-12-11, 00:04:04,VALID,998.203,VALID,0,VALID,89.5641,VALID,0,VALID,23.4866,VALID,134,VALID,0.38125,
2010-12-11, 00:05:04,VALID,998.208,VALID,0,VALID,89.5946,VALID,0,VALID,23.4866,VALID,134,VALID,0.508203,
2010-12-11, 00:06:04,VALID,998.22,VALID,0,VALID,89.526,VALID,0,VALID,23.4866,VALID,134,VALID,0.335938,
2010-12-11, 00:07:04,VALID,998.219,VALID,0,VALID,89.4573,VALID,0,VALID,23.4866,VALID,134,VALID,0,
2010-12-11, 00:08:04,VALID,998.214,VALID,0,VALID,89.3352,VALID,0,VALID,23.4671,VALID,134,VALID,0.204688,
2010-12-11, 00:09:04,VALID,998.198,VALID,0,VALID,89.2208,VALID,0,VALID,23.5079,VALID,134,VALID,0,
2010-12-11, 00:10:04,VALID,998.223,VALID,0,VALID,89.2666,VALID,0,VALID,23.5274,VALID,134,VALID,0.311328,
2010-12-11, 00:11:04,VALID,998.201,VALID,0,VALID,89.3581,VALID,0,VALID,23.5079,VALID,134,VALID,0.34375,
2010-12-11, 00:12:04,VALID,998.23,VALID,0,VALID,89.3047,VALID,0,VALID,23.5274,VALID,134,VALID,0.00703125,
2010-12-11, 00:13:04,VALID,998.218,VALID,0,VALID,89.3505,VALID,0,VALID,23.5274,VALID,134,VALID,0.285547,
2010-12-11, 00:14:04,VALID,998.235,VALID,0,VALID,89.2589,VALID,0,VALID,23.5274,VALID,134,VALID,0.538672,
2010-12-11, 00:15:04,VALID,998.228,VALID,0,VALID,89.1063,VALID,0,VALID,23.5469,VALID,132,VALID,0.832422,
2010-12-11, 00:16:04,VALID,998.199,VALID,0,VALID,89.0224,VALID,0,VALID,23.5664,VALID,131,VALID,0.911719,
2010-12-11, 00:17:04,VALID,998.204,VALID,0,VALID,88.8164,VALID,0,VALID,23.5841,VALID,131,VALID,0.565234,
2010-12-11, 00:18:04,VALID,998.18,VALID,0,VALID,88.7477,VALID,0,VALID,23.5841,VALID,131,VALID,0.667188,
2010-12-11, 00:19:04,VALID,998.209,VALID,0,VALID,88.6409,VALID,0,VALID,23.5841,VALID,132,VALID,0.763281,
2010-12-11, 00:20:04,VALID,998.203,VALID,0,VALID,88.6104,VALID,0,VALID,23.5841,VALID,133,VALID,0.919922,
2010-12-11, 00:21:04,VALID,998.166,VALID,0,VALID,88.6943,VALID,0,VALID,23.625,VALID,131,VALID,1.00742,
2010-12-11, 00:22:04,VALID,998.152,VALID,0,VALID,88.7477,VALID,0,VALID,23.625,VALID,131,VALID,0.884766,
2010-12-11, 00:23:04,VALID,998.154,VALID,0,VALID,88.7401,VALID,0,VALID,23.5841,VALID,113,VALID,0.658984,
2010-12-11, 00:24:04,VALID,998.13,VALID,0,VALID,88.7554,VALID,0,VALID,23.5841,VALID,119,VALID,0.586328,
2010-12-11, 00:25:04,VALID,998.109,VALID,0,VALID,88.8546,VALID,0,VALID,23.5823,VALID,119,VALID,0.398828,
2010-12-11, 00:26:04,VALID,998.095,VALID,0,VALID,88.9003,VALID,0,VALID,23.5823,VALID,119,VALID,0.568359,
2010-12-11, 00:27:04,VALID,998.059,VALID,0,VALID,88.8164,VALID,0,VALID,23.5841,VALID,119,VALID,0.405469,
2010-12-11, 00:28:04,VALID,998.073,VALID,0,VALID,88.8851,VALID,0,VALID,23.5841,VALID,119,VALID,0.371094,
2010-12-11, 00:29:04,VALID,998.054,VALID,0,VALID,88.9156,VALID,0,VALID,23.5841,VALID,119,VALID,0.260156,
2010-12-11, 00:30:04,VALID,998.064,VALID,0,VALID,88.9995,VALID,0,VALID,23.5238,VALID,119,VALID,0,
2010-12-11, 00:31:04,VALID,997.999,VALID,0,VALID,89.1674,VALID,0,VALID,23.5433,VALID,119,VALID,0,
2010-12-11, 00:32:04,VALID,997.983,VALID,0,VALID,89.4115,VALID,0,VALID,23.5433,VALID,119,VALID,0,
2010-12-11, 00:33:04,VALID,997.971,VALID,0,VALID,89.6404,VALID,0,VALID,23.5451,VALID,119,VALID,0,
2010-12-11, 00:34:04,VALID,997.948,VALID,0,VALID,89.732,VALID,0,VALID,23.5238,VALID,119,VALID,0,
2010-12-11, 00:35:04,VALID,997.945,VALID,0,VALID,89.7396,VALID,0,VALID,23.4848,VALID,119,VALID,0,
2010-12-11, 00:36:04,VALID,997.878,VALID,0,VALID,89.6709,VALID,0,VALID,23.4866,VALID,119,VALID,0.655469,
2010-12-11, 00:37:04,VALID,997.879,VALID,0,VALID,89.4726,VALID,0,VALID,23.5061,VALID,120,VALID,0.817578,
2010-12-11, 00:38:04,VALID,997.839,VALID,0,VALID,89.32,VALID,0,VALID,23.5043,VALID,119,VALID,0.858594,
2010-12-11, 00:39:04,VALID,997.846,VALID,0,VALID,89.1521,VALID,0,VALID,23.5433,VALID,119,VALID,0.676562,
2010-12-11, 00:40:04,VALID,997.865,VALID,0,VALID,89.1445,VALID,0,VALID,23.5859,VALID,119,VALID,0.280078,
2010-12-11, 00:41:04,VALID,997.829,VALID,0,VALID,89.4191,VALID,0,VALID,23.5841,VALID,119,VALID,0.196094,
2010-12-11, 00:42:04,VALID,997.851,VALID,0,VALID,89.7854,VALID,0,VALID,23.5646,VALID,119,VALID,0.620313,
2010-12-11, 00:43:04,VALID,997.863,VALID,0,VALID,90.0143,VALID,0,VALID,23.5859,VALID,119,VALID,0.477344,
2010-12-11, 00:44:04,VALID,997.89,VALID,0,VALID,90.205,VALID,0,VALID,23.5451,VALID,119,VALID,0.414063,
2010-12-11, 00:45:04,VALID,997.857,VALID,0,VALID,90.2813,VALID,0,VALID,23.5274,VALID,119,VALID,0.429688,
2010-12-11, 00:46:04,VALID,997.87,VALID,0,VALID,90.3728,VALID,0,VALID,23.5274,VALID,119,VALID,0.222656,
2010-12-11, 00:47:04,VALID,997.836,VALID,0,VALID,90.4491,VALID,0,VALID,23.5061,VALID,120,VALID,0.528125,
2010-12-11, 00:48:04,VALID,997.869,VALID,0,VALID,90.4339,VALID,0,VALID,23.5079,VALID,242,VALID,0.621484,
2010-12-11, 00:49:04,VALID,997.822,VALID,0,VALID,90.3118,VALID,0,VALID,23.5079,VALID,245,VALID,0.464453,
2010-12-11, 00:50:04,VALID,997.813,VALID,0,VALID,90.3194,VALID,0,VALID,23.5274,VALID,245,VALID,0.364453,
2010-12-11, 00:51:04,VALID,997.813,VALID,0,VALID,90.4568,VALID,0,VALID,23.5274,VALID,245,VALID,0.384375,
2010-12-11, 00:52:04,VALID,997.797,VALID,0,VALID,90.5941,VALID,0,VALID,23.5274,VALID,245,VALID,0.35,
2010-12-11, 00:53:04,VALID,997.788,VALID,0,VALID,90.6399,VALID,0,VALID,23.5061,VALID,245,VALID,0.408594,
2010-12-11, 00:54:04,VALID,997.776,VALID,0,VALID,90.678,VALID,0,VALID,23.5079,VALID,245,VALID,0.473828,
2010-12-11, 00:55:04,VALID,997.765,VALID,0,VALID,90.7314,VALID,0,VALID,23.4671,VALID,245,VALID,0.479297,
2010-12-11, 00:56:04,VALID,997.736,VALID,0,VALID,90.7543,VALID,0,VALID,23.4475,VALID,245,VALID,0.143359,
2010-12-11, 00:57:04,VALID,997.762,VALID,0,VALID,90.8535,VALID,0,VALID,23.4458,VALID,245,VALID,0,
2010-12-11, 00:58:04,VALID,997.767,VALID,0,VALID,90.9146,VALID,0,VALID,23.428,VALID,245,VALID,0,
2010-12-11, 00:59:04,VALID,997.752,VALID,0,VALID,90.9832,VALID,0,VALID,23.4067,VALID,245,VALID,0,
2010-12-11, 01:00:04,VALID,997.751,VALID,0,VALID,91.0214,VALID,0,VALID,23.4067,VALID,245,VALID,0.219141,
2010-12-11, 01:01:04,VALID,997.727,VALID,0,VALID,91.0519,VALID,0,VALID,23.3872,VALID,245,VALID,0.422266,
2010-12-11, 01:02:04,VALID,997.727,VALID,0,VALID,91.0366,VALID,0,VALID,23.3872,VALID,245,VALID,0.328906,
2010-12-11, 01:03:04,VALID,997.72,VALID,0,VALID,91.0443,VALID,0,VALID,23.3872,VALID,245,VALID,0.119141,
2010-12-11, 01:04:04,VALID,997.685,VALID,0,VALID,91.029,VALID,0,VALID,23.389,VALID,245,VALID,0,
2010-12-11, 01:05:04,VALID,997.654,VALID,0,VALID,91.0214,VALID,0,VALID,23.389,VALID,245,VALID,0,
2010-12-11, 01:06:05,VALID,997.678,VALID,0,VALID,91.0824,VALID,0,VALID,23.3695,VALID,245,VALID,0.046875,
2010-12-11, 01:07:05,VALID,997.623,VALID,0,VALID,91.1358,VALID,0,VALID,23.3695,VALID,245,VALID,0.354297,
2010-12-11, 01:08:05,VALID,997.615,VALID,0,VALID,91.1816,VALID,0,VALID,23.3482,VALID,245,VALID,0.291797,
2010-12-11, 01:09:05,VALID,997.6,VALID,0,VALID,91.235,VALID,0,VALID,23.3695,VALID,245,VALID,0.152734,
2010-12-11, 01:10:05,VALID,997.584,VALID,0,VALID,91.2808,VALID,0,VALID,23.3695,VALID,245,VALID,0,
2010-12-11, 01:11:05,VALID,997.565,VALID,0,VALID,91.3876,VALID,0,VALID,23.3695,VALID,245,VALID,0,
2010-12-11, 01:12:05,VALID,997.577,VALID,0,VALID,91.4257,VALID,0,VALID,23.3908,VALID,245,VALID,0,
2010-12-11, 01:13:05,VALID,997.576,VALID,0,VALID,91.4868,VALID,0,VALID,23.3695,VALID,245,VALID,0,
2010-12-11, 01:14:05,VALID,997.562,VALID,0,VALID,91.5936,VALID,0,VALID,23.389,VALID,245,VALID,0,
2010-12-11, 01:15:05,VALID,997.556,VALID,0,VALID,91.6241,VALID,0,VALID,23.35,VALID,245,VALID,0.00273437,
2010-12-11, 01:16:05,VALID,997.547,VALID,0,VALID,91.6851,VALID,0,VALID,23.3695,VALID,245,VALID,0.451953,
2010-12-11, 01:17:05,VALID,997.588,VALID,0,VALID,91.7233,VALID,0,VALID,23.3713,VALID,245,VALID,0.0996094,
2010-12-11, 01:18:05,VALID,997.563,VALID,0,VALID,91.7614,VALID,0,VALID,23.3713,VALID,245,VALID,0.0296875,
2010-12-11, 01:19:05,VALID,997.541,VALID,0,VALID,91.8454,VALID,0,VALID,23.3713,VALID,245,VALID,0.364062,
2010-12-11, 01:20:05,VALID,997.541,VALID,0,VALID,91.8683,VALID,0,VALID,23.3713,VALID,245,VALID,0.439453,
2010-12-11, 01:21:05,VALID,997.521,VALID,0,VALID,91.914,VALID,0,VALID,23.35,VALID,245,VALID,0.38125,
2010-12-11, 01:22:05,VALID,997.483,VALID,0,VALID,91.9598,VALID,0,VALID,23.35,VALID,245,VALID,0.435937,
2010-12-11, 01:23:05,VALID,997.472,VALID,0,VALID,91.9903,VALID,0,VALID,23.35,VALID,245,VALID,0.453516,
2010-12-11, 01:24:05,VALID,997.435,VALID,0,VALID,92.0285,VALID,0,VALID,23.3305,VALID,245,VALID,0.307813,
2010-12-11, 01:25:05,VALID,997.432,VALID,0,VALID,92.0437,VALID,0,VALID,23.35,VALID,245,VALID,0.180078,
2010-12-11, 01:26:05,VALID,997.448,VALID,0,VALID,92.0666,VALID,0,VALID,23.3287,VALID,245,VALID,0.0472656,
2010-12-11, 01:27:05,VALID,997.408,VALID,0,VALID,92.0666,VALID,0.112286,VALID,23.3287,VALID,245,VALID,0,
2010-12-11, 01:28:05,VALID,997.388,VALID,0,VALID,92.1048,VALID,0.112286,VALID,23.3287,VALID,245,VALID,0,
2010-12-11, 01:29:05,VALID,997.375,VALID,0,VALID,92.1124,VALID,0,VALID,23.3092,VALID,245,VALID,0,
2010-12-11, 01:30:05,VALID,997.372,VALID,0,VALID,92.1048,VALID,0,VALID,23.3287,VALID,245,VALID,0.336328,
2010-12-11, 01:31:05,VALID,997.358,VALID,0,VALID,92.1429,VALID,0,VALID,23.3482,VALID,245,VALID,0.643359,
2010-12-11, 01:32:05,VALID,997.355,VALID,0,VALID,92.1506,VALID,0,VALID,23.3482,VALID,80,VALID,0.73125,
2010-12-11, 01:33:05,VALID,997.334,VALID,0,VALID,92.204,VALID,0,VALID,23.4085,VALID,80,VALID,0.846875,
2010-12-11, 01:34:05,VALID,997.304,VALID,0,VALID,92.2574,VALID,0,VALID,23.4263,VALID,80,VALID,1.00859,
2010-12-11, 01:35:05,VALID,997.286,VALID,0,VALID,92.2803,VALID,0,VALID,23.4671,VALID,79,VALID,1.09023,
2010-12-11, 01:36:05,VALID,997.245,VALID,0,VALID,92.2345,VALID,0,VALID,23.4458,VALID,66,VALID,1.26758,
2010-12-11, 01:37:05,VALID,997.235,VALID,0,VALID,92.2345,VALID,0,VALID,23.4458,VALID,68,VALID,1.11328,
2010-12-11, 01:38:05,VALID,997.216,VALID,0,VALID,92.2116,VALID,0,VALID,23.4671,VALID,75,VALID,1.02305,
2010-12-11, 01:39:05,VALID,997.234,VALID,0,VALID,92.1734,VALID,0,VALID,23.4458,VALID,77,VALID,1.12109,
2010-12-11, 01:40:05,VALID,997.197,VALID,0,VALID,92.1506,VALID,0,VALID,23.4475,VALID,79,VALID,1.03711,
2010-12-11, 01:41:05,VALID,997.222,VALID,0,VALID,92.1506,VALID,0,VALID,23.4458,VALID,79,VALID,0.984375,
2010-12-11, 01:42:05,VALID,997.226,VALID,0,VALID,92.0895,VALID,0,VALID,23.4475,VALID,74,VALID,0.820313,
2010-12-11, 01:43:05,VALID,997.238,VALID,0,VALID,92.0361,VALID,0.112286,VALID,23.4067,VALID,73,VALID,0.876953,
2010-12-11, 01:44:05,VALID,997.199,VALID,0,VALID,91.9903,VALID,0,VALID,23.4067,VALID,73,VALID,0.723047,
2010-12-11, 01:45:05,VALID,997.2,VALID,0,VALID,91.9445,VALID,0,VALID,23.4475,VALID,73,VALID,0.836328,
2010-12-11, 01:46:05,VALID,997.227,VALID,0,VALID,91.8683,VALID,0,VALID,23.4067,VALID,63,VALID,0.967578,
2010-12-11, 01:47:05,VALID,997.189,VALID,0,VALID,91.792,VALID,0,VALID,23.428,VALID,63,VALID,0.850781,
2010-12-11, 01:48:05,VALID,997.215,VALID,0,VALID,91.7309,VALID,0,VALID,23.4067,VALID,63,VALID,0.85625,
2010-12-11, 01:49:05,VALID,997.24,VALID,0,VALID,91.6546,VALID,0,VALID,23.428,VALID,63,VALID,0.916406,
2010-12-11, 01:50:05,VALID,997.249,VALID,0,VALID,91.6012,VALID,0,VALID,23.3872,VALID,60,VALID,1.01094,
2010-12-11, 01:51:05,VALID,997.264,VALID,0,VALID,91.5936,VALID,0,VALID,23.3872,VALID,59,VALID,1.00859,
2010-12-11, 01:52:05,VALID,997.256,VALID,0,VALID,91.5783,VALID,0,VALID,23.3872,VALID,59,VALID,0.95625,
2010-12-11, 01:53:05,VALID,997.253,VALID,0,VALID,91.5936,VALID,0,VALID,23.4067,VALID,47,VALID,1.23828,
2010-12-11, 01:54:05,VALID,997.24,VALID,0,VALID,91.6012,VALID,0,VALID,23.4475,VALID,47,VALID,0.908984,
2010-12-11, 01:55:05,VALID,997.249,VALID,0,VALID,91.6088,VALID,0,VALID,23.428,VALID,50,VALID,0.867188,
2010-12-11, 01:56:05,VALID,997.283,VALID,0,VALID,91.6546,VALID,0,VALID,23.4298,VALID,47,VALID,0.845703,
2010-12-11, 01:57:05,VALID,997.259,VALID,0,VALID,91.6851,VALID,0,VALID,23.4085,VALID,50,VALID,0.718359,
2010-12-11, 01:58:05,VALID,997.241,VALID,0,VALID,91.6851,VALID,0,VALID,23.4298,VALID,45,VALID,1.15313,
2010-12-11, 01:59:05,VALID,997.26,VALID,0,VALID,91.7233,VALID,0,VALID,23.4103,VALID,47,VALID,0.878125,
2010-12-11, 02:00:05,VALID,997.231,VALID,0,VALID,91.7462,VALID,0,VALID,23.4103,VALID,40,VALID,1.00703,
2010-12-11, 02:01:05,VALID,997.246,VALID,0,VALID,91.7233,VALID,0,VALID,23.389,VALID,40,VALID,0.982422,
2010-12-11, 02:02:05,VALID,997.236,VALID,0,VALID,91.7233,VALID,0,VALID,23.4298,VALID,39,VALID,0.605469,
2010-12-11, 02:03:05,VALID,997.23,VALID,0,VALID,91.7157,VALID,0,VALID,23.4085,VALID,39,VALID,0.513672,
2010-12-11, 02:04:05,VALID,997.237,VALID,0,VALID,91.7157,VALID,0,VALID,23.389,VALID,40,VALID,0.504297,
2010-12-11, 02:05:05,VALID,997.221,VALID,0,VALID,91.6928,VALID,0,VALID,23.389,VALID,40,VALID,0.579297,
2010-12-11, 02:06:05,VALID,997.2,VALID,0,VALID,91.6546,VALID,0,VALID,23.389,VALID,58,VALID,0.708984,
2010-12-11, 02:07:05,VALID,997.224,VALID,0,VALID,91.6165,VALID,0,VALID,23.4103,VALID,78,VALID,0.571875,
2010-12-11, 02:08:05,VALID,997.247,VALID,0,VALID,91.5936,VALID,0,VALID,23.4085,VALID,78,VALID,0.497656,
2010-12-11, 02:09:05,VALID,997.246,VALID,0,VALID,91.5478,VALID,0,VALID,23.4085,VALID,78,VALID,0.388672,
2010-12-11, 02:10:05,VALID,997.25,VALID,0,VALID,91.4715,VALID,0,VALID,23.4085,VALID,78,VALID,0.578516,
2010-12-11, 02:11:05,VALID,997.232,VALID,0,VALID,91.4028,VALID,0,VALID,23.4085,VALID,78,VALID,0.397656,
2010-12-11, 02:12:05,VALID,997.23,VALID,0,VALID,91.3571,VALID,0,VALID,23.428,VALID,78,VALID,0.217578,
2010-12-11, 02:13:05,VALID,997.245,VALID,0,VALID,91.3494,VALID,0,VALID,23.4475,VALID,78,VALID,0.216016,
2010-12-11, 02:14:05,VALID,997.233,VALID,0,VALID,91.3494,VALID,0,VALID,23.4475,VALID,78,VALID,0.327344,
2010-12-11, 02:15:05,VALID,997.232,VALID,0,VALID,91.3876,VALID,0,VALID,23.428,VALID,78,VALID,0.315625,
2010-12-11, 02:16:05,VALID,997.192,VALID,0,VALID,91.4181,VALID,0,VALID,23.428,VALID,78,VALID,0.355469,
2010-12-11, 02:17:05,VALID,997.217,VALID,0,VALID,91.4486,VALID,0,VALID,23.428,VALID,78,VALID,0.295703,
2010-12-11, 02:18:05,VALID,997.183,VALID,0,VALID,91.5173,VALID,0,VALID,23.4493,VALID,78,VALID,0.0046875,
2010-12-11, 02:19:05,VALID,997.174,VALID,0,VALID,91.5326,VALID,0,VALID,23.4493,VALID,78,VALID,0,
2010-12-11, 02:20:05,VALID,997.186,VALID,0,VALID,91.5936,VALID,0,VALID,23.428,VALID,78,VALID,0,
2010-12-11, 02:21:05,VALID,997.161,VALID,0,VALID,91.647,VALID,0,VALID,23.4493,VALID,78,VALID,0,
2010-12-11, 02:22:05,VALID,997.168,VALID,0,VALID,91.6851,VALID,0,VALID,23.428,VALID,78,VALID,0,
2010-12-11, 02:23:05,VALID,997.137,VALID,0,VALID,91.7157,VALID,0,VALID,23.4298,VALID,78,VALID,0,
2010-12-11, 02:24:05,VALID,997.128,VALID,0,VALID,91.708,VALID,0,VALID,23.4298,VALID,78,VALID,0.0203125,
2010-12-11, 02:25:05,VALID,997.136,VALID,0,VALID,91.7004,VALID,0.112286,VALID,23.4067,VALID,78,VALID,0.216797,
2010-12-11, 02:26:05,VALID,997.105,VALID,0,VALID,91.6775,VALID,0,VALID,23.4085,VALID,78,VALID,0.135937,
2010-12-11, 02:27:05,VALID,997.105,VALID,0,VALID,91.6165,VALID,0.112286,VALID,23.4067,VALID,78,VALID,0.262891,
2010-12-11, 02:28:05,VALID,997.101,VALID,0,VALID,91.5783,VALID,0,VALID,23.3872,VALID,78,VALID,0.145703,
2010-12-11, 02:29:05,VALID,997.083,VALID,0,VALID,91.5326,VALID,0.112286,VALID,23.4067,VALID,78,VALID,0.165625,
2010-12-11, 02:30:05,VALID,997.046,VALID,0,VALID,91.5097,VALID,0,VALID,23.4263,VALID,78,VALID,0.021875,
2010-12-11, 02:31:05,VALID,997.031,VALID,0,VALID,91.4944,VALID,0,VALID,23.4263,VALID,78,VALID,0.138672,
2010-12-11, 02:32:05,VALID,997.011,VALID,0,VALID,91.4563,VALID,0,VALID,23.4263,VALID,78,VALID,0.0742188,
2010-12-11, 02:33:05,VALID,997.005,VALID,0,VALID,91.38,VALID,0,VALID,23.4263,VALID,78,VALID,0.192969,
2010-12-11, 02:34:05,VALID,996.992,VALID,0,VALID,91.2731,VALID,0.112286,VALID,23.4458,VALID,78,VALID,0.0191406,
2010-12-11, 02:35:05,VALID,996.978,VALID,0,VALID,91.1511,VALID,0.112286,VALID,23.4263,VALID,78,VALID,0,
2010-12-11, 02:36:05,VALID,996.918,VALID,0,VALID,91.0519,VALID,0,VALID,23.4458,VALID,78,VALID,0,
2010-12-11, 02:37:05,VALID,996.921,VALID,0,VALID,90.9603,VALID,0.112286,VALID,23.4653,VALID,78,VALID,0,
2010-12-11, 02:38:05,VALID,996.89,VALID,0,VALID,90.8459,VALID,0,VALID,23.5043,VALID,78,VALID,0,
2010-12-11, 02:39:05,VALID,996.892,VALID,0,VALID,90.7696,VALID,0.112286,VALID,23.5043,VALID,78,VALID,0,
2010-12-11, 02:40:05,VALID,996.906,VALID,0,VALID,90.7009,VALID,0,VALID,23.5256,VALID,78,VALID,0.421094,
2010-12-11, 02:41:05,VALID,996.889,VALID,0,VALID,90.6551,VALID,0,VALID,23.5451,VALID,78,VALID,0.246484,
2010-12-11, 02:42:05,VALID,996.912,VALID,0,VALID,90.6323,VALID,0,VALID,23.5451,VALID,78,VALID,0.13125,
2010-12-11, 02:43:05,VALID,996.939,VALID,0,VALID,90.6399,VALID,0,VALID,23.5451,VALID,78,VALID,0,
2010-12-11, 02:44:05,VALID,996.943,VALID,0,VALID,90.6246,VALID,0,VALID,23.5451,VALID,78,VALID,0,
2010-12-11, 02:45:05,VALID,996.917,VALID,0,VALID,90.7162,VALID,0,VALID,23.5451,VALID,78,VALID,0.00429688,
2010-12-11, 02:46:05,VALID,996.934,VALID,0,VALID,90.823,VALID,0,VALID,23.5451,VALID,78,VALID,0.152344,
2010-12-11, 02:47:05,VALID,996.963,VALID,0,VALID,90.9298,VALID,0,VALID,23.5451,VALID,78,VALID,0.191797,
2010-12-11, 02:48:05,VALID,996.969,VALID,0,VALID,90.9832,VALID,0,VALID,23.5451,VALID,78,VALID,0.117969,
2010-12-11, 02:49:05,VALID,996.949,VALID,0,VALID,91.0137,VALID,0,VALID,23.5451,VALID,78,VALID,0,
2010-12-11, 02:50:05,VALID,996.96,VALID,0,VALID,91.0137,VALID,0,VALID,23.5256,VALID,78,VALID,0,
2010-12-11, 02:51:05,VALID,996.962,VALID,0,VALID,91.0137,VALID,0,VALID,23.5256,VALID,78,VALID,0,
2010-12-11, 02:52:05,VALID,996.968,VALID,0,VALID,91.029,VALID,0,VALID,23.5256,VALID,78,VALID,0.0980469,
2010-12-11, 02:53:05,VALID,996.941,VALID,0,VALID,91.0595,VALID,0,VALID,23.5256,VALID,78,VALID,0.492578,
2010-12-11, 02:54:05,VALID,996.941,VALID,0,VALID,91.0519,VALID,0,VALID,23.5451,VALID,78,VALID,0.508203,
2010-12-11, 02:55:05,VALID,996.945,VALID,0,VALID,90.9985,VALID,0,VALID,23.5841,VALID,133,VALID,0.677344,
2010-12-11, 02:56:05,VALID,996.935,VALID,0,VALID,90.968,VALID,0,VALID,23.6036,VALID,144,VALID,0.760547,
2010-12-11, 02:57:05,VALID,996.921,VALID,0,VALID,90.9146,VALID,0,VALID,23.6427,VALID,144,VALID,0.624219,
2010-12-11, 02:58:05,VALID,996.933,VALID,0,VALID,90.8077,VALID,0,VALID,23.6622,VALID,144,VALID,0.647266,
2010-12-11, 02:59:05,VALID,996.96,VALID,0,VALID,90.7238,VALID,0,VALID,23.7012,VALID,144,VALID,0.537891,
2010-12-11, 03:00:05,VALID,996.958,VALID,0,VALID,90.7238,VALID,0,VALID,23.7207,VALID,144,VALID,0.569922,
2010-12-11, 03:01:05,VALID,996.912,VALID,0,VALID,90.7391,VALID,0,VALID,23.7402,VALID,144,VALID,0.337109,
2010-12-11, 03:02:05,VALID,996.914,VALID,0,VALID,90.7238,VALID,0,VALID,23.7597,VALID,150,VALID,0.591406,
2010-12-11, 03:03:05,VALID,996.892,VALID,0,VALID,90.7162,VALID,0,VALID,23.7597,VALID,158,VALID,0.711328,
2010-12-11, 03:04:05,VALID,996.878,VALID,0,VALID,90.7085,VALID,0,VALID,23.7793,VALID,158,VALID,0.579687,
2010-12-11, 03:05:05,VALID,996.859,VALID,0,VALID,90.678,VALID,0,VALID,23.7988,VALID,158,VALID,0.514844,
2010-12-11, 03:06:05,VALID,996.857,VALID,0,VALID,90.6323,VALID,0,VALID,23.7988,VALID,158,VALID,0.0652344,
2010-12-11, 03:07:05,VALID,996.828,VALID,0,VALID,90.5865,VALID,0,VALID,23.7793,VALID,158,VALID,0.133984,
2010-12-11, 03:08:05,VALID,996.789,VALID,0,VALID,90.5712,VALID,0,VALID,23.7597,VALID,158,VALID,0.395703,
2010-12-11, 03:09:05,VALID,996.78,VALID,0,VALID,90.6017,VALID,0,VALID,23.7207,VALID,158,VALID,0.312891,
2010-12-11, 03:10:05,VALID,996.776,VALID,0,VALID,90.7314,VALID,0,VALID,23.7012,VALID,82,VALID,0.461719,
2010-12-11, 03:11:05,VALID,996.748,VALID,0,VALID,90.8383,VALID,0,VALID,23.6817,VALID,69,VALID,0.676562,
2010-12-11, 03:12:05,VALID,996.766,VALID,0,VALID,90.9451,VALID,0,VALID,23.6622,VALID,59,VALID,0.631641,
2010-12-11, 03:13:05,VALID,996.761,VALID,0,VALID,91.0748,VALID,0,VALID,23.6622,VALID,59,VALID,0.978516,
2010-12-11, 03:14:05,VALID,996.74,VALID,0,VALID,91.1511,VALID,0,VALID,23.6622,VALID,59,VALID,1.13398,
2010-12-11, 03:15:05,VALID,996.721,VALID,0,VALID,91.1892,VALID,0,VALID,23.6427,VALID,59,VALID,1.21016,
2010-12-11, 03:16:05,VALID,996.666,VALID,0,VALID,91.1968,VALID,0,VALID,23.6622,VALID,54,VALID,1.43125,
2010-12-11, 03:17:05,VALID,996.628,VALID,0,VALID,91.2274,VALID,0,VALID,23.6622,VALID,50,VALID,1.63164,
2010-12-11, 03:18:05,VALID,996.596,VALID,0,VALID,91.3113,VALID,0,VALID,23.6817,VALID,53,VALID,1.44492,
2010-12-11, 03:19:05,VALID,996.555,VALID,0,VALID,91.3876,VALID,0,VALID,23.6604,VALID,49,VALID,1.76328,
2010-12-11, 03:20:05,VALID,996.508,VALID,0,VALID,91.4334,VALID,0,VALID,23.6622,VALID,53,VALID,1.82656,
2010-12-11, 03:21:05,VALID,996.519,VALID,0,VALID,91.4868,VALID,0,VALID,23.6427,VALID,51,VALID,1.92461,
2010-12-11, 03:22:05,VALID,996.489,VALID,0,VALID,91.5554,VALID,0,VALID,23.6427,VALID,50,VALID,1.57422,
2010-12-11, 03:23:05,VALID,996.479,VALID,0,VALID,91.6165,VALID,0,VALID,23.6232,VALID,41,VALID,1.56445,
2010-12-11, 03:24:05,VALID,996.485,VALID,0,VALID,91.6699,VALID,0,VALID,23.5823,VALID,45,VALID,1.43906,
2010-12-11, 03:25:05,VALID,996.484,VALID,0,VALID,91.6546,VALID,0,VALID,23.5823,VALID,47,VALID,0.901563,
2010-12-11, 03:26:05,VALID,996.54,VALID,0,VALID,91.7004,VALID,0,VALID,23.5628,VALID,53,VALID,0.945313,
2010-12-11, 03:27:05,VALID,996.535,VALID,0,VALID,91.7614,VALID,0.112286,VALID,23.5823,VALID,54,VALID,1.08398,
2010-12-11, 03:28:05,VALID,996.529,VALID,0,VALID,91.7843,VALID,0.112286,VALID,23.5823,VALID,48,VALID,0.850781,
2010-12-11, 03:29:05,VALID,996.509,VALID,0,VALID,91.8148,VALID,0,VALID,23.5628,VALID,64,VALID,1.35625,
2010-12-11, 03:30:05,VALID,996.505,VALID,0,VALID,91.792,VALID,0,VALID,23.5628,VALID,66,VALID,0.682422,
2010-12-11, 03:31:05,VALID,996.506,VALID,0,VALID,91.8148,VALID,0,VALID,23.5415,VALID,66,VALID,0.39375,
2010-12-11, 03:32:05,VALID,996.479,VALID,0,VALID,91.7996,VALID,0,VALID,23.5433,VALID,73,VALID,0.235938,
2010-12-11, 03:33:05,VALID,996.452,VALID,0,VALID,91.8072,VALID,0.112286,VALID,23.5433,VALID,78,VALID,0.188672,
2010-12-11, 03:34:05,VALID,996.424,VALID,0,VALID,91.7996,VALID,0,VALID,23.5433,VALID,78,VALID,0,
2010-12-11, 03:35:05,VALID,996.419,VALID,0,VALID,91.8148,VALID,0,VALID,23.5043,VALID,78,VALID,0,
2010-12-11, 03:36:05,VALID,996.377,VALID,0,VALID,91.8072,VALID,0,VALID,23.5043,VALID,78,VALID,0.279687,
2010-12-11, 03:37:05,VALID,996.427,VALID,0,VALID,91.7538,VALID,0.112286,VALID,23.4848,VALID,78,VALID,0.137109,
2010-12-11, 03:38:05,VALID,996.469,VALID,0,VALID,91.7233,VALID,0,VALID,23.4653,VALID,78,VALID,0,
2010-12-11, 03:39:05,VALID,996.463,VALID,0,VALID,91.6699,VALID,0,VALID,23.4653,VALID,78,VALID,0,
2010-12-11, 03:40:05,VALID,996.461,VALID,0,VALID,91.6546,VALID,0,VALID,23.4671,VALID,78,VALID,0.0828125,
2010-12-11, 03:41:05,VALID,996.476,VALID,0,VALID,91.6088,VALID,0,VALID,23.4653,VALID,78,VALID,0.267188,
2010-12-11, 03:42:05,VALID,996.482,VALID,0,VALID,91.5936,VALID,0,VALID,23.4653,VALID,78,VALID,0.305078,
2010-12-11, 03:43:05,VALID,996.507,VALID,0,VALID,91.5783,VALID,0,VALID,23.4866,VALID,78,VALID,0.261328,
2010-12-11, 03:44:05,VALID,996.502,VALID,0,VALID,91.5249,VALID,0,VALID,23.5043,VALID,78,VALID,0,
2010-12-11, 03:45:05,VALID,996.538,VALID,0,VALID,91.5097,VALID,0,VALID,23.5451,VALID,78,VALID,0.108203,
2010-12-11, 03:46:05,VALID,996.577,VALID,0,VALID,91.5097,VALID,0,VALID,23.5841,VALID,78,VALID,0.182422,
2010-12-11, 03:47:05,VALID,996.575,VALID,0,VALID,91.5173,VALID,0,VALID,23.5841,VALID,78,VALID,0.3375,